Regional Weather Roundup
Issued by NWS Bismarck, ND

Home | Current Version | Previous Version | Text Only | Print | Product List | Glossary On
Versions: 1 2 3 4 5 6 7 8 9 10 11 12 13 14 15 16 17 18 19 20 21 22 23 24 25 26 27 28 29 30 31 32 33 34 35 36 37 38 39 40 41 42 43 44 45 46 47 48 49 50
000
ASUS43 KBIS 031310
RWRBIS

NWR BROADCAST TEXT
NATIONAL WEATHER SERVICE BISMARCK ND
800 AM CDT FRI JUL 03 2015

NOTE: "FAIR" INDICATES FEW OR NO CLOUDS BELOW 12,000 FEET WITH NO
SIGNIFICANT WEATHER AND/OR OBSTRUCTIONS TO VISIBILITY.


CITY           SKY/WX    TMP DP  RH WIND       PRES   REMARKS
WILLISTON      SUNNY     63  60  90 NE3       30.02S FOG
MINOT          CLOUDY    63  61  93 CALM      29.99S FOG
MINOT AFB      SUNNY     63  63 100 W1        29.98F FOG
BISMARCK       CLOUDY    65  62  90 CALM      30.02S FOG
DICKINSON      MOSUNNY   63  60  90 S7        30.03S FOG
GARRISON         N/A     62  60  93 CALM      30.01S
HETTINGER ARPT SUNNY     61  58  90 CALM      30.06F FOG
JAMESTOWN      CLOUDY    67  64  90 NW3       29.96F FOG
BEACH          FAIR      63  63 100 CALM      30.06S FOG
CROSBY         FOG       61  61 100 CALM      30.02S VSB 1/2
HARVEY         FOG       63  63 100 W3        30.00S VSB 1
HAZEN          FAIR      59  59 100 CALM      30.03R FOG
LINTON         FOG       63  63 100 CALM      30.01S VSB 3/4
MANDAN         FAIR      64  64 100 N3        30.03S FOG
OAKES            N/A     63  63 100 CALM      29.97S FOG
STANLEY        FOG       61  61 100 CALM      30.03S VSB 3/4
$$

CITY           SKY/WX    TMP DP  RH WIND       PRES   REMARKS
GRAND FORKS    FOG       66  64  93 W3        29.93R VSB 1
GRAND FORKS AF SUNNY     67  64  91 W3        29.94S FOG
DEVILS LAKE      N/A     64  59  82 CALM      29.97R VSB 3/4
FARGO          PTSUNNY   65  63  93 W3        29.94R FOG
CANDO          FOG       59  59 100 W5        29.98S VSB 1
CAVALIER       FOG       66  63  88 NW5       29.93R VSB 1
GRAFTON        FOG       66  66 100 W6        29.93S VSB 1
GWINNER        CLOUDY    64  64 100 SW8       29.97S
LANGDON        FOG       61  61 100 NW6       29.97R VSB 1/2
ROLLA          FAIR      66  64  94 NW3       30.00R FOG
WALHALLA       FAIR      64  64 100 MISG      29.94R FOG
$$

CITY           SKY/WX    TMP DP  RH WIND       PRES   REMARKS
ABERDEEN       PTSUNNY   63  61  93 S6        29.98S FOG
MOBRIDGE       CLOUDY    66  64  93 NW3       29.99S FOG
BUFFALO          N/A     62  58  86 E3        30.01S
RAPID CITY     SUNNY     64  57  78 CALM      30.09S HAZE
GLASGOW        SUNNY     63  56  78 E7        30.00S HAZE
SIDNEY         SUNNY     61  57  88 CALM      30.02S
WOLF POINT     SUNNY     62  58  86 CALM      30.01S FOG
GLENDIVE       SUNNY     63  57  82 NE3       30.03F
MILES CITY     SUNNY     62  54  74 CALM      30.02S HAZE
BAKER          SUNNY     62  58  86 CALM      30.06S FOG
$$

CITY           SKY/WX    TMP DP  RH WIND       PRES   REMARKS
BILLINGS       MOSUNNY   67  50  54 CALM      30.06S HAZE
GREAT FALLS    MOSUNNY   63  50  62 SW5       30.01R
REGINA         MOSUNNY   59  59 100 E5        30.00S FOG
$$



USA.gov is the U.S. government's official web portal to all federal, state and local government web resources and services.